Content
SEND FEEDBACK

Daily
Averages
Monthly
Summary
Cuba

GUANABACOA, CUBA


Home > Caribbean > Cuba
Elevation: 164 feet     Latitude: 23 10N     Longitude: 082 21W

WEATHER
 
SELECT A DAY
Number of Records: 143,984;   Date Range: 6/30/96 - 12/23/14
 
SHARE

PRINT THIS DATA

[ ← Previous Day ]
WEATHER ALMANAC - FEBRUARY 13, 2013
[ Next Day → ]
[ °C ]   °F
Weather ElementAverageHighLow
Temperature73.2 °F86 °F (12:55 pm)60.8 °F (6:55 am)
Dewpoint64.5 °F71.6 °F (8:55 am) (7:00 pm)
Humidity82.6 %100 % (1:55 am)51 % (12:55 pm)
Barometer29.99 in30.04 in (8:21 am)29.95 in (2:55 pm)
Wind Speed6.4 mph16.1 mph (3:55 pm)
Weather ElementAverage
Visibility4.4 mi
Wind DirectionESE (128.5 °)

Weather ElementTotal
Precipitation---
Cooling Degree Days8.4 (Base 65)
Growing Degree Days23.4 (Base 50)
Averaged from 26 records on February 13, 2013
WEATHER CONDITIONS BREAKOUT
WIND DIRECTION BREAKOUT
WEATHER BY HOUR - FEBRUARY 13, 2013
[ °C ]   °F
Local TimeTemperatureDewpointHumidityBarometerVisibilityWind DirectionWind SpeedGust SpeedPrecipitationEventsConditions
1:55 AM66.2 °F66.2 °F100 %30.01 in5.0 miEast (100°)2.3 mphScattered Clouds
2:12 AM66.2 °F66.2 °F100 %29.98 in3.1 miVariable1.2 mphPartly Cloudy
2:55 AM64.4 °F0.0 °F29.98 in3.1 miNNE (30°)2.3 mphPartly Cloudy
3:55 AM62.6 °F62.6 °F100 %29.98 in2.5 miVariable1.2 mph
4:55 AM62.6 °F62.6 °F100 %29.98 in1.2 miWest (270°)1.2 mph
5:55 AM62.6 °F62.6 °F100 %29.98 in0.6 miCalmFogFog
6:55 AM60.8 °F60.8 °F100 %30.01 in0.6 miSouth (170°)1.2 mphFogFog
7:03 AM60.8 °F60.8 °F100 %30.01 in0.3 miCalmFogFog
7:55 AM64.4 °F62.6 °F94 %30.01 in1.2 miCalmFogFog
8:21 AM66.2 °F66.2 °F100 %30.04 in4.3 miCalmFogFog
8:55 AM71.6 °F71.6 °F100 %30.04 in5.0 miSE (140°)4.6 mphScattered Clouds
9:55 AM77.0 °F69.8 °F78 %30.04 in5.6 miSE (140°)8.1 mphScattered Clouds
10:55 AM80.6 °F69.8 °F70 %30.04 in6.2 miSouth (180°)10.4 mphScattered Clouds
11:55 AM84.2 °F68.0 °F58 %30.01 in6.2 miSouth (180°)11.5 mphMostly Cloudy
12:55 PM86.0 °F66.2 °F51 %30.01 in6.2 miSouth (180°)13.8 mphMostly Cloudy
1:55 PM84.2 °F64.4 °F51 %29.98 in6.2 miSouth (190°)12.7 mphMostly Cloudy
2:55 PM84.2 °F66.2 °F55 %29.95 in6.2 miSouth (180°)13.8 mphMostly Cloudy
3:55 PM82.4 °F66.2 °F58 %29.95 in6.2 miSouth (190°)16.1 mphScattered Clouds
4:55 PM82.4 °F68.0 °F62 %29.95 in6.2 miSouth (180°)15.0 mphScattered Clouds
5:55 PM80.6 °F69.8 °F70 %29.95 in6.2 miSouth (180°)13.8 mphPartly Cloudy
6:55 PM77.0 °F69.8 °F78 %29.95 in6.2 miSouth (170°)6.9 mphPartly Cloudy
7:55 PM75.2 °F71.6 °F89 %29.98 in6.2 miSouth (180°)8.1 mphPartly Cloudy
8:55 PM75.2 °F71.6 °F89 %29.98 in6.2 miSouth (170°)4.6 mphScattered Clouds
9:55 PM75.2 °F71.6 °F89 %30.01 in5.6 miSouth (170°)4.6 mph
10:55 PM75.2 °F71.6 °F89 %30.01 inSouth (170°)5.8 mphClear
11:55 PM75.2 °F69.8 °F83 %30.01 inSouth (170°)6.9 mphClear
Hourly data recorded from MUHA, located miles away from Guanabacoa, Cuba







STORIES FROM OUR PARTNERS